TimeMST,TemperatureF,Dew PointF,Humidity,Sea Level PressureIn,VisibilityMPH,Wind Direction,Wind SpeedMPH,Gust SpeedMPH,PrecipitationIn,Events,Conditions,WindDirDegrees,DateUTC
12:53 AM,26.1,23.0,88,29.71,10.0,SE,10.4,-,N/A,,Overcast,140,2012-12-08 07:53:00
1:53 AM,27.0,23.0,85,29.67,10.0,SSE,10.4,-,N/A,,Overcast,150,2012-12-08 08:53:00
2:53 AM,27.0,21.9,81,29.66,8.0,SE,11.5,-,0.00,Snow,Light Snow,140,2012-12-08 09:53:00
4:53 AM,27.0,21.0,78,29.64,10.0,SSE,13.8,-,N/A,,Overcast,150,2012-12-08 11:53:00
5:38 AM,26.6,21.2,80,29.57,2.0,SSE,6.9,-,0.00,Snow,Light Snow,150,2012-12-08 12:38:00
5:51 AM,26.6,24.8,93,29.56,3.0,SSE,5.8,-,0.00,Snow,Light Snow,160,2012-12-08 12:51:00
5:53 AM,27.0,24.1,89,29.64,5.0,SSE,5.8,-,0.00,Snow,Light Snow,150,2012-12-08 12:53:00
6:53 AM,27.0,23.0,85,29.67,10.0,SE,4.6,-,0.00,,Overcast,130,2012-12-08 13:53:00
7:11 AM,26.6,21.2,80,29.59,6.0,SE,6.9,-,0.00,Snow,Light Snow,140,2012-12-08 14:11:00
7:18 AM,26.6,21.2,80,29.59,7.0,SSE,6.9,-,0.00,Snow,Light Snow,160,2012-12-08 14:18:00
7:53 AM,26.1,21.0,81,29.68,10.0,SSE,5.8,-,0.00,,Overcast,160,2012-12-08 14:53:00
8:53 AM,27.0,21.9,81,29.70,10.0,WSW,5.8,-,N/A,,Mostly Cloudy,240,2012-12-08 15:53:00
9:53 AM,30.9,26.1,82,29.72,10.0,WNW,15.0,21.9,N/A,,Mostly Cloudy,290,2012-12-08 16:53:00
10:53 AM,30.0,25.0,82,29.73,10.0,WNW,18.4,-,N/A,,Mostly Cloudy,290,2012-12-08 17:53:00
11:03 AM,28.4,24.8,86,29.66,10.0,NW,19.6,23.0,N/A,,Mostly Cloudy,310,2012-12-08 18:03:00
11:09 AM,28.4,24.8,86,29.66,10.0,NW,19.6,23.0,N/A,,Overcast,310,2012-12-08 18:09:00
11:53 AM,21.9,18.0,85,29.78,10.0,WNW,21.9,28.8,N/A,,Overcast,300,2012-12-08 18:53:00
12:53 PM,18.0,12.9,81,29.84,4.0,NNW,25.3,32.2,0.00,Snow,Light Snow,330,2012-12-08 19:53:00
1:16 PM,17.6,12.2,79,29.76,2.5,NNW,25.3,34.5,0.00,Snow,Light Snow,330,2012-12-08 20:16:00
1:28 PM,17.6,12.2,79,29.77,2.5,NNW,26.5,32.2,0.00,Snow,Light Snow,330,2012-12-08 20:28:00
1:40 PM,15.8,10.4,79,29.79,3.0,NNW,25.3,32.2,0.00,Snow,Light Snow,340,2012-12-08 20:40:00
1:51 PM,15.8,10.4,79,29.80,2.0,North,21.9,32.2,0.00,Snow,Light Snow,350,2012-12-08 20:51:00
1:53 PM,16.0,10.0,77,29.91,2.0,North,25.3,33.4,0.00,Snow,Light Snow,350,2012-12-08 20:53:00
2:00 PM,15.8,10.4,79,29.81,1.5,NNW,23.0,33.4,0.00,Snow,Light Snow,340,2012-12-08 21:00:00
2:32 PM,14.0,10.4,86,29.84,0.5,NNW,20.7,29.9,0.00,Fog-Snow,Snow,340,2012-12-08 21:32:00
2:45 PM,14.0,10.4,86,29.85,0.5,NNW,19.6,26.5,0.00,Fog-Snow,Snow,340,2012-12-08 21:45:00
2:53 PM,14.0,9.0,80,29.96,0.5,NNW,25.3,28.8,0.00,Snow,Snow,340,2012-12-08 21:53:00
3:21 PM,14.0,8.6,79,29.89,0.8,North,24.2,31.1,0.00,Snow,Light Snow,350,2012-12-08 22:21:00
3:28 PM,14.0,8.6,79,29.90,1.8,North,24.2,32.2,0.00,Snow,Light Snow,350,2012-12-08 22:28:00
3:37 PM,14.0,8.6,79,29.91,2.0,NNW,26.5,33.4,0.00,Snow,Light Snow,340,2012-12-08 22:37:00
3:46 PM,14.0,8.6,79,29.92,1.5,NNW,18.4,32.2,0.00,Snow,Light Snow,340,2012-12-08 22:46:00
3:53 PM,14.0,9.0,80,30.04,1.5,NNW,20.7,28.8,0.00,Snow,Light Snow,340,2012-12-08 22:53:00
4:16 PM,14.0,8.6,79,29.96,1.2,North,21.9,28.8,0.00,Snow,Light Snow,350,2012-12-08 23:16:00
4:36 PM,12.2,8.6,85,29.98,0.8,North,18.4,26.5,0.00,Snow,Light Snow,350,2012-12-08 23:36:00
4:53 PM,12.9,9.0,84,30.11,1.0,North,18.4,-,0.00,Snow,Light Snow,350,2012-12-08 23:53:00
5:28 PM,12.2,8.6,85,30.03,1.2,NNW,20.7,28.8,0.00,Snow,Light Snow,340,2012-12-09 00:28:00
5:53 PM,10.9,6.1,81,30.17,1.5,North,20.7,27.6,0.00,Snow,Light Snow,350,2012-12-09 00:53:00
6:36 PM,10.4,5.0,79,30.10,3.0,North,18.4,27.6,0.00,Snow,Light Snow,350,2012-12-09 01:36:00
6:53 PM,9.0,3.0,77,30.24,10.0,North,21.9,28.8,0.00,,Overcast,350,2012-12-09 01:53:00
7:53 PM,8.1,1.9,76,30.30,10.0,NNW,12.7,-,N/A,,Overcast,340,2012-12-09 02:53:00
8:53 PM,6.1,-0.0,76,30.33,10.0,North,18.4,-,N/A,,Scattered Clouds,350,2012-12-09 03:53:00
9:53 PM,5.0,-2.0,73,30.36,10.0,NNW,10.4,-,N/A,,Clear,340,2012-12-09 04:53:00
10:53 PM,1.9,-4.0,76,30.39,10.0,NNW,9.2,-,N/A,,Mostly Cloudy,330,2012-12-09 05:53:00
11:53 PM,1.9,-4.0,76,30.44,10.0,NW,10.4,-,N/A,,Partly Cloudy,310,2012-12-09 06:53:00